FENGYUN 1C DEB *, 46990

Orbit data source: Space-Track

FENGYUN 1C DEB *, 46990 is space debris in SSO originally from a launch on Mon, 10 May 1999 UTC launched from the Taiyaun Space Center, China (TSC). Fengyun 1C debris stems from the Chinese weather satellite Fengyun-1C, which was intentionally destroyed by a Chinese anti-satellite missile in 2007. This event dramatically increased the amount of space debris, with thousands of trackable fragments posing hazards to satellites and human spaceflight. The Fengyun 1C debris cloud has become a focal point in discussions about space sustainability and the need for international regulations to prevent the creation of new debris.

Loading next visibility...
Identifier
46990, 1999-025EZQ
Orbit
SSO
Country
Flag of CNCN / PRC
Related business
Manufacturer
Unknown
Mission
Spacecraft
Bus & Motor
Unknown
Mass
Unknown
Launch date (UTC)
1999-05-10 (26 years ago)
Launch vehicle
Unknown
Launch site
Taiyaun Space Center, China (TSC)
Object type
Payload
Rocket body
Debris
Shape & HBR
Unknown
Radar Cross Section
Small (<0.1 m²)

Expand to show TLE details & history
Last TLE update: 2 days ago

TLE from 2 days ago
0 FENGYUN 1C DEB *
1 46990U 99025EZQ 25259.34687168  .00015245  00000-0  35870-2 0  9991
2 46990  98.2415 109.0013 0373081 317.4438 224.3113 14.19565665 72873
Epoch: 2025-09-16T08:19Z
TLE epoch observation values (Epoch: 2025-09-16T08:19:29.713Z)
Latitude
1.01305°
Longitude
168.73501°
Altitude
1,026.711 km
Speed
7.237 km/s
True Right ascension
19h 16m 35s
True Declination
1° 00' 26"
Sunlit
Object was in daylight at epoch
Visualization orbit readout
Latitude
Unknown
Longitude
Unknown
Altitude
Unknown
Speed
Unknown
Apparent Right ascension
Unknown
Apparent Declination
Unknown
Sunlit
N/A
Visualization observer readout
Local Sidereal Time
16:15:49
Azimuth
Unknown
Elevation
Unknown
Doppler factor
Unknown
Orbital elements
Apogee altitude
1,092.65 km
Perigee altitude
555.257 km
Semi-major axis
7,202.09 km
Eccentricity
0.03731
Inclination
98.2415°
RAAN
109.0013°
Arg. of periapsis
317.4438°
True anomaly
221.42261°
Mean anomaly
224.3113°
Eccentric anomaly
222.85736°
Mean motion
3.55104 °/min
Orbital period
101.38 mins
BSTAR
0.003587
Loading maneuver chart data...
Computing Atmospheric mass density...
Loading historical data...
Loading historical data...
Loading historical data...
Loading historical data...
Loading historical data...
Loading historical data...
Loading historical data...

Documentation

Showing up to 5 results
|